owner,sensor,date,latitude,longitude,vertical_datum,direction_of_sea_water_velocity,sea_water_speed,upward_sea_water_velocity,qcFlag 
TABS,ioos:station:wmo:42048:1,2001-12-08T00:00:00Z,27.9396,-96.8429,2.0,0.0,0.0,-99999.0,'11133222,11111222,99999999' 
TABS,ioos:station:wmo:42048:1,2001-12-09T00:00:00Z,27.9396,-96.8429,2.0,0.0,0.0,-99999.0,'11133222,11111222,99999999' 
TABS,ioos:station:wmo:42048:1,2001-12-10T00:00:00Z,27.9396,-96.8429,2.0,0.0,0.0,-99999.0,'11133222,11111222,99999999' 
TABS,ioos:station:wmo:42048:1,2001-12-11T00:00:00Z,27.9396,-96.8429,2.0,0.0,0.0,-99999.0,'11133222,11111222,99999999' 
TABS,ioos:station:wmo:42048:1,2001-12-11T21:00:00Z,27.9396,-96.8429,2.0,253.2057096,11.59450301,-99999.0,'11111222,11111222,99999999' 
TABS,ioos:station:wmo:42048:1,2001-12-11T21:30:00Z,27.9396,-96.8429,2.0,225.2580396,20.38609575,-99999.0,'11111222,11111222,99999999' 
TABS,ioos:station:wmo:42048:1,2001-12-11T22:00:00Z,27.9396,-96.8429,2.0,236.3314145,21.84409531,-99999.0,'11111222,11111222,99999999' 
TABS,ioos:station:wmo:42048:1,2001-12-11T22:30:00Z,27.9396,-96.8429,2.0,218.0896318,21.04076995,-99999.0,'11111222,11111222,99999999' 
TABS,ioos:station:wmo:42048:1,2001-12-11T23:00:00Z,27.9396,-96.8429,2.0,226.2462235,22.42766372,-99999.0,'11111222,11111222,99999999' 
TABS,ioos:station:wmo:42048:1,2001-12-11T23:30:00Z,27.9396,-96.8429,2.0,217.9346225,20.12147609,-99999.0,'11111222,11111222,99999999' 
TABS,ioos:station:wmo:42048:1,2001-12-12T00:00:00Z,27.9396,-96.8429,2.0,213.7770949,20.01915333,-99999.0,'11111222,11111222,99999999' 
TABS,ioos:station:wmo:42048:1,2001-12-12T00:30:00Z,27.9396,-96.8429,2.0,219.8874412,21.42571352,-99999.0,'11111222,11111222,99999999' 
TABS,ioos:station:wmo:42048:1,2001-12-12T01:00:00Z,27.9396,-96.8429,2.0,227.5607219,22.15457063,-99999.0,'11111222,11111222,99999999' 
TABS,ioos:station:wmo:42048:1,2001-12-12T01:30:00Z,27.9396,-96.8429,2.0,211.5408703,20.93246522,-99999.0,'11111222,11111222,99999999' 
TABS,ioos:station:wmo:42048:1,2001-12-12T02:00:00Z,27.9396,-96.8429,2.0,234.2902942,21.72445626,-99999.0,'11111222,11111222,99999999' 
TABS,ioos:station:wmo:42048:1,2001-12-12T02:30:00Z,27.9396,-96.8429,2.0,231.9631366,20.53025572,-99999.0,'11111222,11111222,99999999' 
TABS,ioos:station:wmo:42048:1,2001-12-12T03:00:00Z,27.9396,-96.8429,2.0,228.6355335,22.07788486,-99999.0,'11111222,11111222,99999999' 
TABS,ioos:station:wmo:42048:1,2001-12-12T03:30:00Z,27.9396,-96.8429,2.0,223.5957573,20.49103462,-99999.0,'11111222,11111222,99999999' 
TABS,ioos:station:wmo:42048:1,2001-12-12T04:00:00Z,27.9396,-96.8429,2.0,229.1708912,21.5814967,-99999.0,'11111222,11111222,99999999' 
TABS,ioos:station:wmo:42048:1,2001-12-12T04:30:00Z,27.9396,-96.8429,2.0,229.1094198,19.14110237,-99999.0,'11111222,11111222,99999999' 
TABS,ioos:station:wmo:42048:1,2001-12-12T05:00:00Z,27.9396,-96.8429,2.0,225.2392314,18.60414201,-99999.0,'11111222,11111222,99999999' 
TABS,ioos:station:wmo:42048:1,2001-12-12T05:30:00Z,27.9396,-96.8429,2.0,223.6745092,21.40277552,-99999.0,'11111222,11111222,99999999' 
TABS,ioos:station:wmo:42048:1,2001-12-12T06:00:00Z,27.9396,-96.8429,2.0,249.8633227,18.21326165,-99999.0,'11111222,11111222,99999999' 
TABS,ioos:station:wmo:42048:1,2001-12-12T06:30:00Z,27.9396,-96.8429,2.0,239.8419939,16.70047005,-99999.0,'11111222,11111222,99999999' 
TABS,ioos:station:wmo:42048:1,2001-12-12T07:00:00Z,27.9396,-96.8429,2.0,234.919482,18.63509056,-99999.0,'11111222,11111222,99999999' 
TABS,ioos:station:wmo:42048:1,2001-12-12T07:30:00Z,27.9396,-96.8429,2.0,211.0423389,19.93501442,-99999.0,'11111222,11111222,99999999' 
TABS,ioos:station:wmo:42048:1,2001-12-12T08:00:00Z,27.9396,-96.8429,2.0,198.7911822,21.85492393,-99999.0,'11111222,11111222,99999999' 
TABS,ioos:station:wmo:42048:1,2001-12-12T08:30:00Z,27.9396,-96.8429,2.0,210.8060684,21.22474499,-99999.0,'11111222,11111222,99999999' 
TABS,ioos:station:wmo:42048:1,2001-12-12T09:00:00Z,27.9396,-96.8429,2.0,210.6570402,24.69100443,-99999.0,'11111222,11111222,99999999' 
TABS,ioos:station:wmo:42048:1,2001-12-12T10:00:00Z,27.9396,-96.8429,2.0,207.7434177,26.95926742,-99999.0,'11111222,11111222,99999999' 
TABS,ioos:station:wmo:42048:1,2001-12-12T10:30:00Z,27.9396,-96.8429,2.0,207.017079,27.75941282,-99999.0,'11111222,11111222,99999999' 
TABS,ioos:station:wmo:42048:1,2001-12-12T11:00:00Z,27.9396,-96.8429,2.0,203.0527391,26.35459922,-99999.0,'11111222,11111222,99999999' 
TABS,ioos:station:wmo:42048:1,2001-12-12T11:30:00Z,27.9396,-96.8429,2.0,204.3097709,27.61893915,-99999.0,'11111222,11111222,99999999' 
TABS,ioos:station:wmo:42048:1,2001-12-12T12:00:00Z,27.9396,-96.8429,2.0,207.4206893,28.14181942,-99999.0,'11111222,11111222,99999999' 
TABS,ioos:station:wmo:42048:1,2001-12-12T12:30:00Z,27.9396,-96.8429,2.0,212.3144036,28.07869299,-99999.0,'11111222,11111222,99999999' 
TABS,ioos:station:wmo:42048:1,2001-12-12T13:00:00Z,27.9396,-96.8429,2.0,213.17053,28.76793354,-99999.0,'11111222,11111222,99999999' 
TABS,ioos:station:wmo:42048:1,2001-12-12T13:30:00Z,27.9396,-96.8429,2.0,215.3462603,30.31871534,-99999.0,'11111222,11111222,99999999' 
TABS,ioos:station:wmo:42048:1,2001-12-12T14:00:00Z,27.9396,-96.8429,2.0,212.9224203,27.54333495,-99999.0,'11111222,11111222,99999999' 
TABS,ioos:station:wmo:42048:1,2001-12-12T14:30:00Z,27.9396,-96.8429,2.0,215.5351934,30.40224498,-99999.0,'11111222,11111222,99999999' 
TABS,ioos:station:wmo:42048:1,2001-12-12T15:00:00Z,27.9396,-96.8429,2.0,217.8597765,26.96602677,-99999.0,'11111222,11111222,99999999' 
TABS,ioos:station:wmo:42048:1,2001-12-12T15:30:00Z,27.9396,-96.8429,2.0,221.0942286,27.71931637,-99999.0,'11111222,11111222,99999999' 
TABS,ioos:station:wmo:42048:1,2001-12-12T16:00:00Z,27.9396,-96.8429,2.0,232.7782347,23.14443562,-99999.0,'11111222,11111222,99999999' 
TABS,ioos:station:wmo:42048:1,2001-12-12T16:30:00Z,27.9396,-96.8429,2.0,235.8407101,22.70741289,-99999.0,'11111222,11111222,99999999' 
TABS,ioos:station:wmo:42048:1,2001-12-12T17:00:00Z,27.9396,-96.8429,2.0,239.9485584,20.8877476,-99999.0,'11111222,11111222,99999999' 
TABS,ioos:station:wmo:42048:1,2001-12-12T17:30:00Z,27.9396,-96.8429,2.0,238.4591126,17.37711714,-99999.0,'11111222,11111222,99999999' 
TABS,ioos:station:wmo:42048:1,2001-12-12T18:00:00Z,27.9396,-96.8429,2.0,263.9229974,14.642271,-99999.0,'11111222,11111222,99999999' 
TABS,ioos:station:wmo:42048:1,2001-12-12T19:00:00Z,27.9396,-96.8429,2.0,251.5514625,13.71479858,-99999.0,'11111222,11111222,99999999' 
TABS,ioos:station:wmo:42048:1,2001-12-12T19:30:00Z,27.9396,-96.8429,2.0,225.706331,14.90694469,-99999.0,'11111222,11111222,99999999' 
TABS,ioos:station:wmo:42048:1,2001-12-12T20:00:00Z,27.9396,-96.8429,2.0,204.418063,11.10316171,-99999.0,'11111222,11111222,99999999' 
TABS,ioos:station:wmo:42048:1,2001-12-12T20:30:00Z,27.9396,-96.8429,2.0,205.3896481,8.722499642,-99999.0,'11133222,11111222,99999999' 
TABS,ioos:station:wmo:42048:1,2001-12-12T21:00:00Z,27.9396,-96.8429,2.0,169.8972259,9.121425327,-99999.0,'11133222,11111222,99999999' 
TABS,ioos:station:wmo:42048:1,2001-12-12T21:30:00Z,27.9396,-96.8429,2.0,184.1846959,11.51069068,-99999.0,'11111222,11111222,99999999' 
TABS,ioos:station:wmo:42048:1,2001-12-12T22:00:00Z,27.9396,-96.8429,2.0,173.8067548,15.48034237,-99999.0,'11111222,11111222,99999999' 
TABS,ioos:station:wmo:42048:1,2001-12-12T22:30:00Z,27.9396,-96.8429,2.0,163.2512541,18.91228701,-99999.0,'11111222,11111222,99999999' 
TABS,ioos:station:wmo:42048:1,2001-12-12T23:00:00Z,27.9396,-96.8429,2.0,168.5804712,18.4859406,-99999.0,'11111222,11111222,99999999' 
TABS,ioos:station:wmo:42048:1,2001-12-12T23:30:00Z,27.9396,-96.8429,2.0,169.6478232,16.30541321,-99999.0,'11111222,11111222,99999999' 
TABS,ioos:station:wmo:42048:1,2001-12-13T00:00:00Z,27.9396,-96.8429,2.0,159.9468873,21.72718574,-99999.0,'11111222,11111222,99999999' 
TABS,ioos:station:wmo:42048:1,2001-12-13T00:30:00Z,27.9396,-96.8429,2.0,155.313126,18.55591819,-99999.0,'11111222,11111222,99999999' 
TABS,ioos:station:wmo:42048:1,2001-12-13T01:00:00Z,27.9396,-96.8429,2.0,155.8062412,19.13029273,-99999.0,'11111222,11111222,99999999' 
TABS,ioos:station:wmo:42048:1,2001-12-13T01:30:00Z,27.9396,-96.8429,2.0,160.0751832,21.77331624,-99999.0,'11111222,11111222,99999999' 
TABS,ioos:station:wmo:42048:1,2001-12-13T02:00:00Z,27.9396,-96.8429,2.0,169.2448097,24.70394705,-99999.0,'11111222,11111222,99999999' 
TABS,ioos:station:wmo:42048:1,2001-12-13T02:30:00Z,27.9396,-96.8429,2.0,171.2858408,27.06238164,-99999.0,'11111222,11111222,99999999' 
TABS,ioos:station:wmo:42048:1,2001-12-13T03:00:00Z,27.9396,-96.8429,2.0,170.0884571,27.48013464,-99999.0,'11111222,11111222,99999999' 
TABS,ioos:station:wmo:42048:1,2001-12-13T03:30:00Z,27.9396,-96.8429,2.0,183.5104598,27.76209826,-99999.0,'11111222,11111222,99999999' 
TABS,ioos:station:wmo:42048:1,2001-12-13T04:00:00Z,27.9396,-96.8429,2.0,185.826557,26.49689982,-99999.0,'11111222,11111222,99999999' 
TABS,ioos:station:wmo:42048:1,2001-12-13T04:30:00Z,27.9396,-96.8429,2.0,189.4512224,26.00298829,-99999.0,'11111222,11111222,99999999' 
TABS,ioos:station:wmo:42048:1,2001-12-13T05:00:00Z,27.9396,-96.8429,2.0,193.6475782,27.54782932,-99999.0,'11111222,11111222,99999999' 
TABS,ioos:station:wmo:42048:1,2001-12-13T05:30:00Z,27.9396,-96.8429,2.0,190.1064634,26.89737534,-99999.0,'11111222,11111222,99999999' 
TABS,ioos:station:wmo:42048:1,2001-12-13T06:00:00Z,27.9396,-96.8429,2.0,194.5782996,25.62503659,-99999.0,'11111222,11111222,99999999' 
TABS,ioos:station:wmo:42048:1,2001-12-13T06:30:00Z,27.9396,-96.8429,2.0,206.5737408,28.59036551,-99999.0,'11111222,11111222,99999999' 
TABS,ioos:station:wmo:42048:1,2001-12-13T07:00:00Z,27.9396,-96.8429,2.0,207.6107777,27.68266244,-99999.0,'11111222,11111222,99999999' 
TABS,ioos:station:wmo:42048:1,2001-12-13T07:30:00Z,27.9396,-96.8429,2.0,205.7147862,26.2274913,-99999.0,'11111222,11111222,99999999' 
TABS,ioos:station:wmo:42048:1,2001-12-13T08:00:00Z,27.9396,-96.8429,2.0,199.3500553,26.92074293,-99999.0,'11111222,11111222,99999999' 
TABS,ioos:station:wmo:42048:1,2001-12-13T08:30:00Z,27.9396,-96.8429,2.0,200.1120323,25.38815669,-99999.0,'11111222,11111222,99999999' 
TABS,ioos:station:wmo:42048:1,2001-12-13T09:00:00Z,27.9396,-96.8429,2.0,194.891524,24.20290272,-99999.0,'11111222,11111222,99999999' 
TABS,ioos:station:wmo:42048:1,2001-12-13T09:30:00Z,27.9396,-96.8429,2.0,210.6888082,30.40876354,-99999.0,'11111222,11111222,99999999' 
TABS,ioos:station:wmo:42048:1,2001-12-13T10:00:00Z,27.9396,-96.8429,2.0,218.9322998,30.50576667,-99999.0,'11111222,11111222,99999999' 
TABS,ioos:station:wmo:42048:1,2001-12-13T10:30:00Z,27.9396,-96.8429,2.0,220.3250682,32.88378476,-99999.0,'11111222,11111222,99999999' 
TABS,ioos:station:wmo:42048:1,2001-12-13T11:00:00Z,27.9396,-96.8429,2.0,228.6879394,33.41636725,-99999.0,'11111222,11111222,99999999' 
TABS,ioos:station:wmo:42048:1,2001-12-13T11:30:00Z,27.9396,-96.8429,2.0,227.5082679,33.28005409,-99999.0,'11111222,11111222,99999999' 
TABS,ioos:station:wmo:42048:1,2001-12-13T12:00:00Z,27.9396,-96.8429,2.0,233.6487468,37.75754891,-99999.0,'11111222,11111222,99999999' 
TABS,ioos:station:wmo:42048:1,2001-12-13T12:30:00Z,27.9396,-96.8429,2.0,231.7280541,35.72869155,-99999.0,'11111222,11111222,99999999' 
TABS,ioos:station:wmo:42048:1,2001-12-13T13:00:00Z,27.9396,-96.8429,2.0,235.7632996,35.77978899,-99999.0,'11111222,11111222,99999999' 
TABS,ioos:station:wmo:42048:1,2001-12-13T13:30:00Z,27.9396,-96.8429,2.0,241.3211019,34.92430672,-99999.0,'11111222,11111222,99999999' 
TABS,ioos:station:wmo:42048:1,2001-12-13T14:00:00Z,27.9396,-96.8429,2.0,246.1253367,34.96145592,-99999.0,'11111222,11111222,99999999' 
TABS,ioos:station:wmo:42048:1,2001-12-13T14:30:00Z,27.9396,-96.8429,2.0,248.3997639,31.67424979,-99999.0,'11111222,11111222,99999999' 
TABS,ioos:station:wmo:42048:1,2001-12-13T15:00:00Z,27.9396,-96.8429,2.0,260.8042036,34.2298846,-99999.0,'11111222,11111222,99999999' 
TABS,ioos:station:wmo:42048:1,2001-12-13T15:30:00Z,27.9396,-96.8429,2.0,267.4519179,35.54513328,-99999.0,'11111222,11111222,99999999' 
TABS,ioos:station:wmo:42048:1,2001-12-13T16:00:00Z,27.9396,-96.8429,2.0,270.1425053,32.26009919,-99999.0,'11111222,11111222,99999999' 
TABS,ioos:station:wmo:42048:1,2001-12-13T16:30:00Z,27.9396,-96.8429,2.0,270.9767348,29.34426009,-99999.0,'11111222,11111222,99999999' 
TABS,ioos:station:wmo:42048:1,2001-12-13T17:00:00Z,27.9396,-96.8429,2.0,276.7903933,26.72746153,-99999.0,'11111222,11111222,99999999' 
TABS,ioos:station:wmo:42048:1,2001-12-13T17:30:00Z,27.9396,-96.8429,2.0,299.1588438,26.78422297,-99999.0,'11111222,11111222,99999999' 
TABS,ioos:station:wmo:42048:1,2001-12-13T18:00:00Z,27.9396,-96.8429,2.0,300.1867291,20.60402145,-99999.0,'11111222,11111222,99999999' 
TABS,ioos:station:wmo:42048:1,2001-12-13T18:30:00Z,27.9396,-96.8429,2.0,312.5189315,21.55868734,-99999.0,'11111222,11111222,99999999' 
TABS,ioos:station:wmo:42048:1,2001-12-13T19:00:00Z,27.9396,-96.8429,2.0,268.6426754,9.712723614,-99999.0,'11133222,11111222,99999999' 
TABS,ioos:station:wmo:42048:1,2001-12-13T19:30:00Z,27.9396,-96.8429,2.0,228.7632116,10.66495663,-99999.0,'11111222,11111222,99999999' 
TABS,ioos:station:wmo:42048:1,2001-12-13T20:00:00Z,27.9396,-96.8429,2.0,219.5004315,15.64248701,-99999.0,'11111222,11111222,99999999' 
TABS,ioos:station:wmo:42048:1,2001-12-13T20:30:00Z,27.9396,-96.8429,2.0,214.2339539,14.30913694,-99999.0,'11111222,11111222,99999999' 
TABS,ioos:station:wmo:42048:1,2001-12-13T21:00:00Z,27.9396,-96.8429,2.0,213.7755501,14.82160585,-99999.0,'11111222,11111222,99999999' 
TABS,ioos:station:wmo:42048:1,2001-12-13T21:30:00Z,27.9396,-96.8429,2.0,208.375017,16.13904892,-99999.0,'11111222,11111222,99999999' 
TABS,ioos:station:wmo:42048:1,2001-12-13T22:00:00Z,27.9396,-96.8429,2.0,200.3889066,16.87740501,-99999.0,'11111222,11111222,99999999' 
TABS,ioos:station:wmo:42048:1,2001-12-13T22:30:00Z,27.9396,-96.8429,2.0,201.0925071,17.86711504,-99999.0,'11111222,11111222,99999999' 
TABS,ioos:station:wmo:42048:1,2001-12-13T23:00:00Z,27.9396,-96.8429,2.0,205.9172622,21.36923022,-99999.0,'11111222,11111222,99999999' 
TABS,ioos:station:wmo:42048:1,2001-12-13T23:30:00Z,27.9396,-96.8429,2.0,192.5813102,21.20929985,-99999.0,'11111222,11111222,99999999' 
TABS,ioos:station:wmo:42048:1,2001-12-14T00:00:00Z,27.9396,-96.8429,2.0,189.1188575,22.7778884,-99999.0,'11111222,11111222,99999999' 
TABS,ioos:station:wmo:42048:1,2001-12-14T00:30:00Z,27.9396,-96.8429,2.0,186.3298925,25.12317257,-99999.0,'11111222,11111222,99999999' 
TABS,ioos:station:wmo:42048:1,2001-12-14T01:00:00Z,27.9396,-96.8429,2.0,194.3297847,19.39340352,-99999.0,'11111222,11111222,99999999' 
TABS,ioos:station:wmo:42048:1,2001-12-14T01:30:00Z,27.9396,-96.8429,2.0,190.2223149,24.28551214,-99999.0,'11111222,11111222,99999999' 
TABS,ioos:station:wmo:42048:1,2001-12-14T02:00:00Z,27.9396,-96.8429,2.0,195.4443573,25.45937941,-99999.0,'11111222,11111222,99999999' 
TABS,ioos:station:wmo:42048:1,2001-12-14T02:30:00Z,27.9396,-96.8429,2.0,198.3993494,25.63026531,-99999.0,'11111222,11111222,99999999' 
TABS,ioos:station:wmo:42048:1,2001-12-14T03:00:00Z,27.9396,-96.8429,2.0,198.2949987,27.23677844,-99999.0,'11111222,11111222,99999999' 
TABS,ioos:station:wmo:42048:1,2001-12-14T03:30:00Z,27.9396,-96.8429,2.0,202.7761381,28.1554897,-99999.0,'11111222,11111222,99999999' 
TABS,ioos:station:wmo:42048:1,2001-12-14T04:00:00Z,27.9396,-96.8429,2.0,213.444113,25.87422849,-99999.0,'11111222,11111222,99999999' 
TABS,ioos:station:wmo:42048:1,2001-12-14T04:30:00Z,27.9396,-96.8429,2.0,212.233935,28.92863287,-99999.0,'11111222,11111222,99999999' 
TABS,ioos:station:wmo:42048:1,2001-12-14T05:00:00Z,27.9396,-96.8429,2.0,212.0848285,29.70752935,-99999.0,'11111222,11111222,99999999' 
TABS,ioos:station:wmo:42048:1,2001-12-14T06:00:00Z,27.9396,-96.8429,2.0,219.2875584,26.07321422,-99999.0,'11111222,11111222,99999999' 
TABS,ioos:station:wmo:42048:1,2001-12-14T06:30:00Z,27.9396,-96.8429,2.0,217.9169367,27.35457,-99999.0,'11111222,11111222,99999999' 
TABS,ioos:station:wmo:42048:1,2001-12-14T07:00:00Z,27.9396,-96.8429,2.0,214.4612117,26.98583703,-99999.0,'11111222,11111222,99999999' 
TABS,ioos:station:wmo:42048:1,2001-12-14T07:30:00Z,27.9396,-96.8429,2.0,215.8251641,29.62492194,-99999.0,'11111222,11111222,99999999' 
TABS,ioos:station:wmo:42048:1,2001-12-14T08:00:00Z,27.9396,-96.8429,2.0,215.1820896,27.3698703,-99999.0,'11111222,11111222,99999999' 
TABS,ioos:station:wmo:42048:1,2001-12-14T08:30:00Z,27.9396,-96.8429,2.0,214.0359713,23.86918516,-99999.0,'11111222,11111222,99999999' 
TABS,ioos:station:wmo:42048:1,2001-12-14T09:00:00Z,27.9396,-96.8429,2.0,212.1738511,24.11293636,-99999.0,'11111222,11111222,99999999' 
TABS,ioos:station:wmo:42048:1,2001-12-14T09:30:00Z,27.9396,-96.8429,2.0,209.3283946,22.53894629,-99999.0,'11111222,11111222,99999999' 
TABS,ioos:station:wmo:42048:1,2001-12-14T10:00:00Z,27.9396,-96.8429,2.0,208.3309185,17.847829,-99999.0,'11111222,11111222,99999999' 
TABS,ioos:station:wmo:42048:1,2001-12-14T10:30:00Z,27.9396,-96.8429,2.0,210.3598836,20.67530169,-99999.0,'11111222,11111222,99999999' 
TABS,ioos:station:wmo:42048:1,2001-12-14T11:00:00Z,27.9396,-96.8429,2.0,211.8491871,17.52924984,-99999.0,'11111222,11111222,99999999' 
TABS,ioos:station:wmo:42048:1,2001-12-14T11:30:00Z,27.9396,-96.8429,2.0,195.3689504,17.62013053,-99999.0,'11111222,11111222,99999999' 
TABS,ioos:station:wmo:42048:1,2001-12-14T12:00:00Z,27.9396,-96.8429,2.0,201.2377494,16.61867925,-99999.0,'11111222,11111222,99999999' 
TABS,ioos:station:wmo:42048:1,2001-12-14T12:30:00Z,27.9396,-96.8429,2.0,198.5780535,18.95791391,-99999.0,'11111222,11111222,99999999' 
TABS,ioos:station:wmo:42048:1,2001-12-14T13:00:00Z,27.9396,-96.8429,2.0,202.8084635,20.0693398,-99999.0,'11111222,11111222,99999999' 
TABS,ioos:station:wmo:42048:1,2001-12-14T13:30:00Z,27.9396,-96.8429,2.0,195.9622577,18.39944836,-99999.0,'11111222,11111222,99999999' 
TABS,ioos:station:wmo:42048:1,2001-12-14T14:00:00Z,27.9396,-96.8429,2.0,192.1353563,19.59795908,-99999.0,'11111222,11111222,99999999' 
TABS,ioos:station:wmo:42048:1,2001-12-14T14:30:00Z,27.9396,-96.8429,2.0,191.3391535,15.25783733,-99999.0,'11111222,11111222,99999999' 
TABS,ioos:station:wmo:42048:1,2001-12-14T15:00:00Z,27.9396,-96.8429,2.0,194.9809301,17.05985053,-99999.0,'11111222,11111222,99999999' 
TABS,ioos:station:wmo:42048:1,2001-12-14T15:30:00Z,27.9396,-96.8429,2.0,192.5606778,21.28955847,-99999.0,'11111222,11111222,99999999' 
TABS,ioos:station:wmo:42048:1,2001-12-14T16:00:00Z,27.9396,-96.8429,2.0,199.3848009,18.49870536,-99999.0,'11111222,11111222,99999999' 
TABS,ioos:station:wmo:42048:1,2001-12-14T16:30:00Z,27.9396,-96.8429,2.0,198.3999811,20.87736094,-99999.0,'11111222,11111222,99999999' 
TABS,ioos:station:wmo:42048:1,2001-12-14T17:00:00Z,27.9396,-96.8429,2.0,198.6238459,21.07353316,-99999.0,'11111222,11111222,99999999' 
TABS,ioos:station:wmo:42048:1,2001-12-14T17:30:00Z,27.9396,-96.8429,2.0,193.1856634,22.22598704,-99999.0,'11111222,11111222,99999999' 
TABS,ioos:station:wmo:42048:1,2001-12-14T18:00:00Z,27.9396,-96.8429,2.0,191.6347606,24.19719818,-99999.0,'11111222,11111222,99999999' 
TABS,ioos:station:wmo:42048:1,2001-12-14T18:30:00Z,27.9396,-96.8429,2.0,197.6463895,14.25057192,-99999.0,'11111222,11111222,99999999' 
TABS,ioos:station:wmo:42048:1,2001-12-14T19:00:00Z,27.9396,-96.8429,2.0,183.9083247,19.36504067,-99999.0,'11111222,11111222,99999999' 
TABS,ioos:station:wmo:42048:1,2001-12-14T19:30:00Z,27.9396,-96.8429,2.0,197.373786,17.07922715,-99999.0,'11111222,11111222,99999999' 
TABS,ioos:station:wmo:42048:1,2001-12-14T20:00:00Z,27.9396,-96.8429,2.0,171.4125105,14.53292125,-99999.0,'11111222,11111222,99999999' 
TABS,ioos:station:wmo:42048:1,2001-12-14T20:30:00Z,27.9396,-96.8429,2.0,183.6948243,20.17193347,-99999.0,'11111222,11111222,99999999' 
TABS,ioos:station:wmo:42048:1,2001-12-14T21:00:00Z,27.9396,-96.8429,2.0,183.4966909,21.14937824,-99999.0,'11111222,11111222,99999999' 
TABS,ioos:station:wmo:42048:1,2001-12-14T21:30:00Z,27.9396,-96.8429,2.0,204.2038862,27.68365944,-99999.0,'11111222,11111222,99999999' 
TABS,ioos:station:wmo:42048:1,2001-12-14T22:00:00Z,27.9396,-96.8429,2.0,204.6253243,21.40696148,-99999.0,'11111222,11111222,99999999' 
TABS,ioos:station:wmo:42048:1,2001-12-14T22:30:00Z,27.9396,-96.8429,2.0,209.5216622,20.72015927,-99999.0,'11111222,11111222,99999999' 
TABS,ioos:station:wmo:42048:1,2001-12-14T23:00:00Z,27.9396,-96.8429,2.0,215.309012,20.41557249,-99999.0,'11111222,11111222,99999999' 
TABS,ioos:station:wmo:42048:1,2001-12-14T23:30:00Z,27.9396,-96.8429,2.0,208.8132346,18.4662503,-99999.0,'11111222,11111222,99999999' 
TABS,ioos:station:wmo:42048:1,2001-12-15T00:00:00Z,27.9396,-96.8429,2.0,210.284421,17.50952027,-99999.0,'11111222,11111222,99999999' 
TABS,ioos:station:wmo:42048:1,2001-12-15T00:30:00Z,27.9396,-96.8429,2.0,203.8235988,17.20610647,-99999.0,'11111222,11111222,99999999' 
TABS,ioos:station:wmo:42048:1,2001-12-15T01:00:00Z,27.9396,-96.8429,2.0,207.5014087,16.41493223,-99999.0,'11111222,11111222,99999999' 
TABS,ioos:station:wmo:42048:1,2001-12-15T01:30:00Z,27.9396,-96.8429,2.0,216.1321879,15.22926131,-99999.0,'11111222,11111222,99999999' 
TABS,ioos:station:wmo:42048:1,2001-12-15T02:00:00Z,27.9396,-96.8429,2.0,222.567997,12.16612099,-99999.0,'11111222,11111222,99999999' 
TABS,ioos:station:wmo:42048:1,2001-12-15T02:30:00Z,27.9396,-96.8429,2.0,228.29924,13.51400015,-99999.0,'11111222,11111222,99999999' 
TABS,ioos:station:wmo:42048:1,2001-12-15T03:00:00Z,27.9396,-96.8429,2.0,241.4456432,11.33922396,-99999.0,'11111222,11111222,99999999' 
TABS,ioos:station:wmo:42048:1,2001-12-15T03:30:00Z,27.9396,-96.8429,2.0,241.691558,10.58597185,-99999.0,'11111222,11111222,99999999' 
TABS,ioos:station:wmo:42048:1,2001-12-15T04:00:00Z,27.9396,-96.8429,2.0,242.4048772,13.68694634,-99999.0,'11111222,11111222,99999999' 
TABS,ioos:station:wmo:42048:1,2001-12-15T04:30:00Z,27.9396,-96.8429,2.0,240.0245196,11.72881921,-99999.0,'11111222,11111222,99999999' 
TABS,ioos:station:wmo:42048:1,2001-12-15T05:00:00Z,27.9396,-96.8429,2.0,238.76193,10.75994424,-99999.0,'11111222,11111222,99999999' 
TABS,ioos:station:wmo:42048:1,2001-12-15T05:30:00Z,27.9396,-96.8429,2.0,232.7944914,9.228157996,-99999.0,'11133222,11111222,99999999' 
TABS,ioos:station:wmo:42048:1,2001-12-15T06:00:00Z,27.9396,-96.8429,2.0,246.1920491,9.388940302,-99999.0,'11133222,11111222,99999999' 
TABS,ioos:station:wmo:42048:1,2001-12-15T06:30:00Z,27.9396,-96.8429,2.0,254.9846485,7.95147785,-99999.0,'11133222,11111222,99999999' 
TABS,ioos:station:wmo:42048:1,2001-12-15T07:00:00Z,27.9396,-96.8429,2.0,207.1968269,6.891980847,-99999.0,'11133222,11111222,99999999' 
TABS,ioos:station:wmo:42048:1,2001-12-15T07:30:00Z,27.9396,-96.8429,2.0,220.4619224,6.703170891,-99999.0,'11133222,11111222,99999999' 
TABS,ioos:station:wmo:42048:1,2001-12-15T08:00:00Z,27.9396,-96.8429,2.0,208.690009,2.291309669,-99999.0,'11133222,11111222,99999999' 
TABS,ioos:station:wmo:42048:1,2001-12-15T08:30:00Z,27.9396,-96.8429,2.0,233.8302276,4.74435454,-99999.0,'11133222,11111222,99999999' 
TABS,ioos:station:wmo:42048:1,2001-12-15T09:00:00Z,27.9396,-96.8429,2.0,201.4250332,5.940521863,-99999.0,'11133222,11111222,99999999' 
TABS,ioos:station:wmo:42048:1,2001-12-15T09:30:00Z,27.9396,-96.8429,2.0,196.2677856,5.854400055,-99999.0,'11133222,11111222,99999999' 
TABS,ioos:station:wmo:42048:1,2001-12-15T10:00:00Z,27.9396,-96.8429,2.0,208.2597399,9.525345138,-99999.0,'11133222,11111222,99999999' 
TABS,ioos:station:wmo:42048:1,2001-12-15T10:30:00Z,27.9396,-96.8429,2.0,179.7166173,6.070074135,-99999.0,'11133222,11111222,99999999' 
TABS,ioos:station:wmo:42048:1,2001-12-15T11:00:00Z,27.9396,-96.8429,2.0,191.1143904,6.328704449,-99999.0,'11133222,11111222,99999999' 
TABS,ioos:station:wmo:42048:1,2001-12-15T11:30:00Z,27.9396,-96.8429,2.0,181.64011,8.733578877,-99999.0,'11133222,11111222,99999999' 
TABS,ioos:station:wmo:42048:1,2001-12-15T12:00:00Z,27.9396,-96.8429,2.0,185.2415972,9.851197897,-99999.0,'11133222,11111222,99999999' 
TABS,ioos:station:wmo:42048:1,2001-12-15T12:30:00Z,27.9396,-96.8429,2.0,184.6202621,10.30348485,-99999.0,'11111222,11111222,99999999' 